ASGARDIA 1 (43049 NORAD) Tracking and Keplerian Element Data

This shows tracking and keplerian element data for the satellite.

Feedback or suggestion? Click here.




ElementValue
Catalog43049
NameASGARDIA 1
Epoch Orbit7255
Epoch Day82.16982494
Epoch Year2019
RAAN120.1947
Inclination51.6383
Eccentricity0.0001967
Argument of Perigee211.1077
Mean Anonmoly148.9792
Mean Motion15.40716205
Decay Rate2.458E-05
L11 43049U 17071N 19082.16982494 .00002458 00000-0 68962-4 0 9993
L22 43049 51.6383 120.1947 0001967 211.1077 148.9792 15.40716205 72554

Live tracking and technical data element details for ASGARDIA 1 (NORAD 43049). ASGARDIA 1 can be tracked NOW for your location showing map with azimuth and elevation plus other details from your city location.

Track the satellite on the map from your city or location and see movement details for azimuth, elevation, latitude, longitude, range, height, and movement on the map or in text.







IsCatalogInMostPopularTable: catalog: 43049, numindb: 217
Update: records affected: 1



GetName: 43049 ASGARDIA 1

Hit Count: updated at: Sun, 24 Mar 2019 08:42:52 GMT